Regional Weather Roundup
Issued by NWS

Home | Current Version | Previous Version | Text Only | Print | Product List | Glossary Off
Versions: 1 2 3 4 5 6 7 8 9 10 11 12 13 14 15 16 17 18 19 20 21 22 23 24 25 26 27 28 29 30 31 32 33 34 35 36 37 38 39 40 41 42 43 44 45 46 47 48 49 50

000
ASUS43 KIND 250059
RWRIN

WEATHER ROUNDUP FOR INDIANA
NATIONAL WEATHER SERVICE INDIANAPOLIS IN
900 PM EDT SAT JUN 24 2017

NOTE: "FAIR" INDICATES FEW OR NO CLOUDS BELOW 12,000 FEET WITH NO
SIGNIFICANT WEATHER AND/OR OBSTRUCTIONS TO VISIBILITY.

* - STATION DOES NOT REPORT WEATHER SUCH AS PRECIPITATION OR FOG.

+ - STATION NOT QUALITY CONTROLLED BY THE NATIONAL WEATHER SERVICE.
    USE DATA WITH CAUTION...ESPECIALLY DEWPOINT AND RELATIVE
    HUMIDITY OBSERVATIONS.

INZ001>003-010>013-019-020-250200-
NORTHWEST INDIANA

CITY           SKY/WX    TMP DP  RH WIND       PRES   REMARKS
KNOX *+        CLEAR     68  34  28 W14G20    30.02R
MICHIGAN CITY+ PTCLDY    68  46  45 NW9       30.02S
MONTICELLO +   CLEAR     68  45  43 W8        30.05R

$$

LMZ046-743>745-250200-
SOUTHERN LAKE MICHIGAN

STATION/POSITION TIME  TEMP    WIND        PRES    WAVE
                       AIR SEA DIR/SP/G            HT
                 (UTC) (F)     (DEG/KT/KT) (MB)    (FT)
BURNS HARBOR     0040   69     290/ 15/ 20 1016.6R
MICHIGAN CITY    0030   69     280/ 18/ 20   N/A
5NW MICH CITY    0050   69 68  300/ 16/ 19   N/A     3

$$

INZ004-005-014>016-021>024-250200-
NORTH CENTRAL INDIANA

CITY           SKY/WX    TMP DP  RH WIND       PRES   REMARKS
GOSHEN         PTCLDY    66  47  50 W6        30.00S
SOUTH BEND     CLEAR     64  50  60 W7        30.01R

$$

INZ006>009-017-018-025>027-250200-
NORTHEAST INDIANA

CITY           SKY/WX    TMP DP  RH WIND       PRES   REMARKS
FORT WAYNE     MOCLDY    68  53  58 W8        30.01R
KENDALLVILLE + PTCLDY    67  49  53 NW3       30.01S

$$

INZ028-029-035-036-043>045-051>053-250200-
WEST CENTRAL INDIANA

CITY           SKY/WX    TMP DP  RH WIND       PRES   REMARKS
CRAWFORDSVL +  CLEAR     65  50  58 W9        30.08R
LAFAYETTE      CLEAR     66  47  50 W7        30.06R
TERRE HAUTE    PTCLDY    72  48  42 W7        30.08R

$$

INZ030>032-037>040-046>048-054>057-064-065-250200-
CENTRAL INDIANA

CITY           SKY/WX    TMP DP  RH WIND       PRES   REMARKS
COLUMBUS       CLEAR     68  50  52 E6        30.07R
GREENWOOD *+   CLEAR     70  45  40 NW10G24   30.08R
INDIANAPOLIS   PTCLDY    69  47  45 W8        30.07R
-EAGLE CREEK   CLEAR     70  47  43 W5        30.06R
KOKOMO +       CLEAR     68  51  54 W8        30.05R
MT COMFORT *+  CLEAR     68  46  45 NW13      30.07R
SHELBYVILLE    CLEAR     71  47  42 NW10      30.06R

$$

INZ033-034-041-042-049-050-058-059-250200-
EAST CENTRAL INDIANA

CITY           SKY/WX    TMP DP  RH WIND       PRES   REMARKS
MUNCIE         CLEAR     70  47  43 W12       30.05R
RICHMOND +     CLEAR     68  52  56 NW9       30.06R

$$

INZ060-061-067>069-081>083-085>088-250200-
SOUTHWEST INDIANA

CITY           SKY/WX    TMP DP  RH WIND       PRES   REMARKS
EVANSVILLE     PTCLDY    73  52  47 NW6       30.11R
HUNTINGBURG *+ PTCLDY    71  56  58 NW6       30.10R

$$

INZ062-063-066-070>080-084-089>092-250200-
SOUTH CENTRAL AND SOUTHEAST INDIANA

CITY           SKY/WX    TMP DP  RH WIND       PRES   REMARKS
BLOOMINGTON    CLEAR     69  49  48 W3        30.09R
MADISON *+     MOCLDY    72  54  53 W5        30.09R
SEYMOUR +      CLOUDY    73  54  49 CALM      30.07R

$$





USA.gov is the U.S. government's official web portal to all federal, state and local government web resources and services.